This demonstration page uses our WeatherBlox Daily Observations layout. Learn more.

Left ArrowRight Arrow

Hourly Observations for November 6, 2021

Temp ( °F °C ) Dew Point ( °F °C ) Humidity (%) Winds ( mph kmh ) Pressure ( in mb ) Visibility ( mi km ) Precip ( " mm )
12:53 am 00:53 Clear 46 7.8 37 2.8 71 71 Calm 30.26 1025 10 16 0.00 0.00
1:53 am 01:53 Clear 46 7.8 36 2.2 68 68 ENE 8 13 30.23 1024 10 16 0.00 0.00
2:53 am 02:53 Clear 46 7.8 35 1.7 66 66 ENE 5 7 30.24 1024 10 16 0.00 0.00
3:53 am 03:53 Clear 45 7.2 34 1.1 66 66 NE 8 13 30.23 1024 10 16 0.00 0.00
4:53 am 04:53 Clear 45 7.2 34 1.1 66 66 NE 9 15 30.23 1024 10 16 0.00 0.00
5:53 am 05:53 Clear 43 6.1 32 0 65 65 NE 6 9 30.24 1024 10 16 0.00 0.00
6:53 am 06:53 Clear 44 6.7 32 0 63 63 NE 9 15 30.23 1024 10 16 0.00 0.00
7:53 am 07:53 Clear 44 6.7 31 -0.6 60 60 NE 9 15 30.24 1024 10 16 0.00 0.00
8:53 am 08:53 Sunny 44 6.7 31 -0.6 60 60 NNE 6 9 30.25 1025 10 16 0.00 0.00
9:53 am 09:53 Sunny 47 8.3 31 -0.6 54 54 NE 10 17 30.27 1025 10 16 0.00 0.00
10:01 am 10:01 Mostly Sunny 48 8.9 31 -0.6 52 52 NE 14 22 30.28 1026 10 16 0.00 0.00
10:53 am 10:53 Sunny 49 9.4 31 -0.6 50 50 NE 12 19 30.26 1025 10 16 0.00 0.00
11:53 am 11:53 Sunny 53 11.7 30 -1.1 41 41 ENE 13 20 30.24 1024 10 16 0.00 0.00
12:53 pm 12:53 Sunny 54 12.2 30 -1.1 40 40 VRB 6 9 30.22 1023 10 16 0.00 0.00
1:53 pm 13:53 Sunny 57 13.9 32 0 39 39 VRB 3 6 30.18 1022 10 16 0.00 0.00
2:53 pm 14:53 Sunny 59 15 35 1.7 41 41 Calm 30.16 1021 10 16 0.00 0.00
3:53 pm 15:53 Sunny 59 15 41 5 51 51 NNW 9 15 30.13 1020 10 16 0.00 0.00
4:53 pm 16:53 Sunny 59 15 40 4.4 49 49 NW 8 13 30.13 1020 10 16 0.00 0.00
5:53 pm 17:53 Sunny 58 14.4 39 3.9 50 50 N 6 9 30.13 1020 10 16 0.00 0.00
6:53 pm 18:53 Clear 54 12.2 38 3.3 55 55 NNW 5 7 30.13 1020 10 16 0.00 0.00
7:53 pm 19:53 Clear 52 11.1 38 3.3 59 59 Calm 30.14 1021 10 16 0.00 0.00
8:53 pm 20:53 Clear 52 11.1 38 3.3 59 59 NE 3 6 30.14 1021 10 16 0.00 0.00
9:53 pm 21:53 Clear 48 8.9 39 3.9 71 71 Calm 30.14 1021 10 16 0.00 0.00
10:53 pm 22:53 Clear 45 7.2 39 3.9 80 80 Calm 30.14 1021 10 16 0.00 0.00
11:53 pm 23:53 Clear 42 5.6 40 4.4 92 92 Calm 30.14 1021 10 16 0.00 0.00

Powered by AerisWeather